QPF
0.12 0.13 0.14 0.16 0.19 0.23 0.26 0.28 0.28 0.29 0.27 0.25 0.23 0.18 0.12 0.10 0.11 0.08 0.06 0.06 0.05 0.04 0.04 0.04 0.04 0.04 0.03 0.02 0.02 0.01 0.01 0.01 0.00 0.00 0.00 0.00 0.00 0.00
0.12 0.13 0.15 0.16 0.19 0.21 0.23 0.23 0.21 0.21 0.22 0.21 0.18 0.14 0.11 0.10 0.09 0.06 0.05 0.04 0.03 0.02 0.02 0.02 0.02 0.01 0.01 0.01 0.01 0.00 0.00 0.01 0.01 0.01 0.01 0.01 0.01 0.00
0.11 0.13 0.15 0.17 0.18 0.18 0.19 0.20 0.19 0.18 0.20 0.21 0.18 0.15 0.12 0.09 0.07 0.05 0.03 0.03 0.02 0.02 0.01 0.01 0.01 0.00 0.00 0.00 0.00 0.00 0.00 0.00 0.00 0.00 0.00 0.01 0.01 0.01
0.08 0.10 0.12 0.13 0.15 0.16 0.16 0.18 0.18 0.18 0.16 0.16 0.15 0.13 0.11 0.07 0.05 0.04 0.02 0.02 0.01 0.00 0.00 0.00 0.00 0.00 0.00 0.00 0.00 0.00 0.00 0.00 0.00 0.00 0.00 0.00 0.00 0.00
0.08 0.07 0.09 0.10 0.10 0.10 0.11 0.12 0.13 0.13 0.12 0.12 0.12 0.10 0.07 0.05 0.04 0.03 0.02 0.02 0.01 0.00 0.00 0.00 0.00 0.00 0.00 0.00 0.00 0.00 0.00 0.00 0.00 0.00 0.00 0.00 0.00 0.00
0.06 0.06 0.07 0.09 0.08 0.07 0.08 0.08 0.08 0.08 0.08 0.08 0.07 0.06 0.05 0.05 0.04 0.03 0.03 0.02 0.01 0.00 0.00 0.00 0.00 0.00 0.00 0.00 0.00 0.00 0.00 0.00 0.00 0.00 0.00 0.00 0.00 0.00
0.04 0.05 0.05 0.05 0.04 0.04 0.04 0.05 0.05 0.05 0.05 0.05 0.05 0.04 0.04 0.04 0.04 0.03 0.03 0.02 0.01 0.00 0.00 0.00 0.00 0.00 0.00 0.00 0.00 0.00 0.00 0.00 0.00 0.00 0.00 0.00 0.00 0.00
0.03 0.03 0.03 0.02 0.02 0.02 0.02 0.02 0.02 0.03 0.04 0.04 0.04 0.04 0.04 0.03 0.03 0.02 0.02 0.01 0.01 0.01 0.01 0.00 0.00 0.00 0.00 0.00 0.00 0.00 0.00 0.00 0.00 0.00 0.00 0.00 0.00 0.00
0.04 0.03 0.03 0.02 0.01 0.01 0.00 0.00 0.01 0.01 0.02 0.03 0.03 0.03 0.03 0.02 0.02 0.02 0.02 0.02 0.02 0.01 0.01 0.01 0.00 0.00 0.00 0.00 0.00 0.00 0.00 0.00 0.00 0.00 0.00 0.00 0.00 0.00
0.01 0.01 0.01 0.00 0.00 0.01 0.01 0.00 0.00 0.01 0.01 0.01 0.01 0.02 0.03 0.03 0.02 0.02 0.02 0.02 0.02 0.01 0.01 0.02 0.01 0.00 0.00 0.00 0.00 0.00 0.00 0.00 0.00 0.00 0.00 0.00 0.00 0.00
0.00 0.00 0.00 0.00 0.00 0.00 0.01 0.01 0.01 0.01 0.01 0.01 0.01 0.01 0.02 0.02 0.02 0.03 0.03 0.03 0.03 0.03 0.01 0.02 0.02 0.01 0.01 0.01 0.00 0.00 0.00 0.00 0.00 0.00 0.00 0.00 0.00 0.00
0.00 0.00 0.00 0.00 0.00 0.00 0.01 0.01 0.02 0.02 0.01 0.01 0.01 0.01 0.01 0.01 0.01 0.02 0.03 0.05 0.06 0.05 0.03 0.02 0.02 0.01 0.02 0.01 0.01 0.00 0.00 0.00 0.00 0.00 0.00 0.00 0.00 0.00
0.00 0.00 0.00 0.00 0.00 0.00 0.01 0.02 0.01 0.01 0.01 0.01 0.02 0.02 0.02 0.02 0.02 0.02 0.02 0.03 0.04 0.04 0.02 0.01 0.03 0.03 0.03 0.02 0.01 0.00 0.01 0.01 0.00 0.00 0.00 0.00 0.00 0.00
0.00 0.00 0.00 0.01 0.01 0.00 0.00 0.01 0.00 0.01 0.01 0.01 0.01 0.02 0.02 0.02 0.01 0.01 0.01 0.01 0.02 0.02 0.02 0.02 0.03 0.05 0.04 0.03 0.02 0.00 0.00 0.00 0.00 0.00 0.00 0.00 0.00 0.00
0.00 0.00 0.00 0.00 0.00 0.00 0.00 0.00 0.00 0.01 0.01 0.02 0.02 0.01 0.01 0.01 0.01 0.01 0.01 0.01 0.01 0.01 0.00 0.01 0.02 0.02 0.02 0.03 0.02 0.01 0.01 0.00 0.00 0.00 0.00 0.00 0.00 0.00
0.00 0.00 0.00 0.00 0.00 0.00 0.00 0.00 0.00 0.01 0.01 0.01 0.01 0.01 0.01 0.01 0.01 0.02 0.02 0.01 0.01 0.02 0.01 0.00 0.01 0.01 0.02 0.01 0.01 0.01 0.01 0.00 0.00 0.00 0.00 0.00 0.00 0.00
0.00 0.00 0.00 0.00 0.00 0.00 0.00 0.00 0.01 0.01 0.01 0.01 0.01 0.01 0.01 0.01 0.01 0.01 0.00 0.00 0.00 0.01 0.01 0.00 0.00 0.00 0.00 0.01 0.01 0.01 0.00 0.00 0.00 0.00 0.00 0.00 0.00 0.00
0.00 0.01 0.01 0.01 0.00 0.00 0.00 0.00 0.00 0.01 0.01 0.01 0.01 0.01 0.01 0.00 0.00 0.00 0.00 0.00 0.00 0.00 0.00 0.00 0.00 0.00 0.00 0.00 0.00 0.00 0.00 0.00 0.00 0.00 0.00 0.00 0.00 0.00
0.01 0.01 0.01 0.01 0.00 0.00 0.00 0.00 0.00 0.00 0.00 0.00 0.01 0.01 0.00 0.00 0.00 0.00 0.00 0.00 0.00 0.00 0.00 0.00 0.00 0.00 0.00 0.01 0.00 0.00 0.00 0.00 0.00 0.00 0.00 0.00 0.00 0.00
0.01 0.00 0.00 0.00 0.00 0.00 0.00 0.00 0.00 0.00 0.00 0.00 0.00 0.00 0.00 0.00 0.00 0.00 0.00 0.00 0.00 0.00 0.00 0.00 0.00 0.00 0.00 0.00 0.00 0.00 0.00 0.00 0.00 0.00 0.00 0.00 0.00 0.00
0.00 0.00 0.00 0.00 0.00 0.00 0.00 0.00 0.00 0.00 0.00 0.00 0.00 0.00 0.00 0.00 0.00 0.00 0.00 0.00 0.00 0.00 0.00 0.00 0.00 0.00 0.00 0.00 0.00 0.00 0.00 0.00 0.00 0.00 0.00 0.00 0.00 0.00
0.00 0.00 0.00 0.00 0.00 0.00 0.00 0.00 0.00 0.00 0.00 0.00 0.00 0.00 0.00 0.00 0.00 0.00 0.00 0.00 0.00 0.00 0.00 0.00 0.00 0.00 0.00 0.00 0.01 0.00 0.00 0.00 0.00 0.00 0.00 0.00 0.00 0.00
0.00 0.00 0.00 0.00 0.00 0.00 0.00 0.00 0.00 0.00 0.00 0.00 0.00 0.00 0.00 0.00 0.00 0.00 0.00 0.00 0.00 0.00 0.00 0.00 0.00 0.00 0.00 0.00 0.00 0.00 0.00 0.00 0.00 0.00 0.00 0.00 0.00 0.00
MSLP
1017.05 1017.36 1017.74 1018.20 1018.74 1019.36 1020.05 1020.80 1021.59 1022.39 1023.16 1023.88 1024.51 1025.04 1025.45 1025.76 1025.99 1026.17 1026.33 1026.49 1026.69 1026.93 1027.19 1027.48 1027.76 1028.01 1028.22 1028.36 1028.44 1028.46 1028.43 1028.38 1028.30 1028.23 1028.15 1028.08 1028.00 1027.90
1017.34 1017.59 1017.89 1018.27 1018.73 1019.26 1019.87 1020.56 1021.29 1022.05 1022.81 1023.52 1024.15 1024.69 1025.12 1025.44 1025.69 1025.88 1026.05 1026.22 1026.43 1026.68 1026.97 1027.29 1027.61 1027.90 1028.14 1028.32 1028.42 1028.45 1028.41 1028.34 1028.24 1028.13 1028.02 1027.92 1027.82 1027.72
1017.79 1017.95 1018.17 1018.44 1018.78 1019.20 1019.70 1020.28 1020.93 1021.61 1022.31 1022.99 1023.60 1024.14 1024.58 1024.92 1025.18 1025.38 1025.56 1025.75 1025.97 1026.24 1026.55 1026.89 1027.24 1027.57 1027.85 1028.06 1028.19 1028.23 1028.20 1028.12 1028.00 1027.87 1027.75 1027.64 1027.54 1027.45
1018.35 1018.44 1018.56 1018.72 1018.93 1019.23 1019.60 1020.06 1020.59 1021.18 1021.81 1022.43 1023.02 1023.54 1023.97 1024.32 1024.59 1024.81 1025.00 1025.19 1025.42 1025.69 1026.00 1026.36 1026.72 1027.07 1027.37 1027.61 1027.76 1027.82 1027.81 1027.74 1027.63 1027.50 1027.38 1027.27 1027.19 1027.13
1019.00 1019.01 1019.04 1019.10 1019.21 1019.38 1019.63 1019.97 1020.39 1020.89 1021.43 1021.99 1022.53 1023.02 1023.44 1023.79 1024.06 1024.28 1024.47 1024.66 1024.88 1025.13 1025.43 1025.77 1026.12 1026.47 1026.77 1027.02 1027.18 1027.27 1027.27 1027.22 1027.13 1027.03 1026.93 1026.85 1026.80 1026.78
1019.72 1019.67 1019.63 1019.61 1019.63 1019.71 1019.86 1020.09 1020.41 1020.81 1021.27 1021.76 1022.25 1022.71 1023.10 1023.44 1023.71 1023.92 1024.10 1024.27 1024.45 1024.67 1024.93 1025.22 1025.53 1025.84 1026.12 1026.35 1026.51 1026.61 1026.64 1026.61 1026.56 1026.49 1026.44 1026.41 1026.40 1026.42
1020.49 1020.40 1020.32 1020.25 1020.22 1020.23 1020.31 1020.46 1020.70 1021.01 1021.39 1021.81 1022.23 1022.64 1023.01 1023.32 1023.57 1023.76 1023.92 1024.05 1024.19 1024.35 1024.54 1024.76 1025.00 1025.25 1025.47 1025.67 1025.81 1025.90 1025.95 1025.95 1025.94 1025.92 1025.92 1025.94 1025.99 1026.05
1021.27 1021.17 1021.08 1021.01 1020.95 1020.93 1020.96 1021.05 1021.22 1021.46 1021.76 1022.10 1022.46 1022.82 1023.14 1023.42 1023.64 1023.81 1023.93 1024.02 1024.10 1024.19 1024.30 1024.43 1024.58 1024.73 1024.89 1025.02 1025.13 1025.20 1025.25 1025.28 1025.30 1025.33 1025.38 1025.45 1025.55 1025.65
1022.03 1021.95 1021.89 1021.82 1021.78 1021.75 1021.76 1021.81 1021.92 1022.08 1022.31 1022.57 1022.86 1023.15 1023.43 1023.66 1023.85 1023.98 1024.06 1024.11 1024.13 1024.15 1024.17 1024.20 1024.25 1024.31 1024.38 1024.44 1024.49 1024.54 1024.58 1024.62 1024.67 1024.73 1024.82 1024.93 1025.06 1025.19
1022.72 1022.70 1022.67 1022.65 1022.63 1022.61 1022.61 1022.63 1022.68 1022.78 1022.92 1023.10 1023.32 1023.54 1023.75 1023.94 1024.08 1024.18 1024.23 1024.24 1024.21 1024.17 1024.11 1024.06 1024.01 1023.98 1023.95 1023.94 1023.94 1023.94 1023.96 1024.00 1024.05 1024.13 1024.23 1024.36 1024.50 1024.65
1023.34 1023.37 1023.40 1023.42 1023.43 1023.43 1023.41 1023.40 1023.40 1023.43 1023.49 1023.59 1023.71 1023.86 1024.01 1024.15 1024.26 1024.33 1024.35 1024.33 1024.27 1024.17 1024.06 1023.94 1023.82 1023.71 1023.61 1023.52 1023.46 1023.42 1023.40 1023.42 1023.46 1023.53 1023.63 1023.74 1023.88 1024.01
1023.87 1023.94 1024.02 1024.08 1024.11 1024.11 1024.09 1024.04 1023.98 1023.94 1023.92 1023.94 1023.98 1024.06 1024.15 1024.24 1024.31 1024.36 1024.37 1024.33 1024.25 1024.13 1023.98 1023.82 1023.64 1023.47 1023.31 1023.17 1023.06 1022.97 1022.91 1022.89 1022.90 1022.94 1023.00 1023.09 1023.19 1023.29
1024.30 1024.41 1024.51 1024.59 1024.63 1024.62 1024.57 1024.49 1024.38 1024.27 1024.18 1024.12 1024.10 1024.10 1024.14 1024.19 1024.24 1024.27 1024.27 1024.23 1024.14 1024.01 1023.85 1023.66 1023.46 1023.26 1023.06 1022.88 1022.72 1022.59 1022.48 1022.42 1022.38 1022.37 1022.39 1022.43 1022.48 1022.54
1024.66 1024.76 1024.86 1024.93 1024.95 1024.93 1024.85 1024.73 1024.58 1024.42 1024.28 1024.16 1024.07 1024.03 1024.02 1024.04 1024.06 1024.08 1024.07 1024.03 1023.95 1023.83 1023.66 1023.47 1023.26 1023.04 1022.82 1022.61 1022.42 1022.25 1022.11 1021.99 1021.90 1021.84 1021.80 1021.78 1021.78 1021.79
1024.93 1025.00 1025.06 1025.10 1025.09 1025.04 1024.93 1024.78 1024.61 1024.42 1024.24 1024.09 1023.97 1023.89 1023.85 1023.84 1023.84 1023.84 1023.83 1023.79 1023.71 1023.59 1023.43 1023.25 1023.04 1022.81 1022.58 1022.36 1022.14 1021.95 1021.77 1021.61 1021.47 1021.36 1021.27 1021.20 1021.15 1021.12
1025.12 1025.13 1025.13 1025.12 1025.07 1024.99 1024.86 1024.70 1024.52 1024.32 1024.14 1023.98 1023.85 1023.75 1023.69 1023.66 1023.64 1023.62 1023.59 1023.53 1023.45 1023.33 1023.17 1022.99 1022.78 1022.56 1022.33 1022.10 1021.87 1021.66 1021.46 1021.27 1021.10 1020.94 1020.81 1020.71 1020.62 1020.57
1025.22 1025.15 1025.08 1025.01 1024.92 1024.81 1024.68 1024.53 1024.36 1024.19 1024.03 1023.88 1023.76 1023.66 1023.58 1023.53 1023.48 1023.43 1023.37 1023.29 1023.19 1023.05 1022.89 1022.70 1022.49 1022.27 1022.05 1021.82 1021.59 1021.37 1021.15 1020.95 1020.77 1020.60 1020.45 1020.32 1020.23 1020.16
1025.23 1025.08 1024.94 1024.81 1024.69 1024.57 1024.45 1024.33 1024.20 1024.07 1023.95 1023.83 1023.73 1023.64 1023.55 1023.47 1023.39 1023.31 1023.21 1023.09 1022.95 1022.78 1022.60 1022.40 1022.18 1021.96 1021.73 1021.51 1021.28 1021.07 1020.86 1020.66 1020.48 1020.32 1020.17 1020.05 1019.97 1019.91
1025.14 1024.92 1024.72 1024.56 1024.42 1024.31 1024.22 1024.14 1024.06 1023.99 1023.92 1023.84 1023.76 1023.68 1023.58 1023.48 1023.36 1023.23 1023.07 1022.90 1022.72 1022.51 1022.30 1022.08 1021.85 1021.62 1021.39 1021.17 1020.96 1020.76 1020.56 1020.39 1020.22 1020.08 1019.96 1019.87 1019.80 1019.76
1024.97 1024.70 1024.48 1024.30 1024.17 1024.08 1024.03 1024.00 1023.98 1023.97 1023.95 1023.91 1023.85 1023.76 1023.65 1023.51 1023.35 1023.16 1022.96 1022.73 1022.50 1022.25 1022.01 1021.76 1021.51 1021.28 1021.05 1020.83 1020.63 1020.44 1020.27 1020.12 1019.98 1019.87 1019.78 1019.72 1019.69 1019.67
1024.73 1024.45 1024.23 1024.06 1023.95 1023.90 1023.90 1023.93 1023.96 1024.00 1024.01 1024.00 1023.95 1023.86 1023.72 1023.55 1023.34 1023.10 1022.84 1022.57 1022.29 1022.01 1021.73 1021.46 1021.20 1020.95 1020.72 1020.51 1020.31 1020.13 1019.98 1019.85 1019.74 1019.66 1019.61 1019.58 1019.57 1019.57
1024.46 1024.21 1024.01 1023.87 1023.80 1023.80 1023.84 1023.91 1024.00 1024.07 1024.11 1024.11 1024.05 1023.94 1023.78 1023.56 1023.31 1023.03 1022.72 1022.41 1022.10 1021.79 1021.49 1021.20 1020.93 1020.67 1020.43 1020.21 1020.01 1019.84 1019.70 1019.58 1019.49 1019.43 1019.40 1019.39 1019.39 1019.40
1024.19 1023.98 1023.82 1023.73 1023.71 1023.76 1023.84 1023.95 1024.06 1024.15 1024.20 1024.20 1024.13 1024.00 1023.80 1023.55 1023.26 1022.95 1022.61 1022.28 1021.94 1021.62 1021.31 1021.01 1020.73 1020.46 1020.21 1019.97 1019.76 1019.58 1019.43 1019.31 1019.22 1019.16 1019.14 1019.13 1019.13 1019.13
Thickness
5638 5640 5641 5641 5642 5641 5640 5638 5633 5624 5616 5611 5608 5605 5603 5602 5599 5597 5595 5591 5588 5585 5583 5581 5577 5574 5571 5568 5566 5563 5560 5556 5553 5550 5547 5543 5540 5538
5627 5628 5629 5630 5630 5631 5631 5629 5628 5624 5614 5606 5602 5598 5595 5593 5590 5588 5586 5582 5579 5577 5575 5572 5569 5565 5562 5559 5556 5553 5549 5546 5543 5540 5536 5533 5530 5527
5615 5617 5617 5619 5620 5620 5620 5619 5617 5615 5607 5598 5594 5589 5586 5585 5582 5580 5578 5575 5572 5569 5566 5563 5561 5557 5554 5551 5548 5544 5540 5537 5534 5530 5527 5524 5521 5518
5603 5605 5606 5607 5608 5608 5608 5607 5605 5604 5601 5593 5587 5582 5579 5576 5574 5571 5571 5569 5566 5561 5558 5555 5552 5549 5546 5542 5539 5536 5532 5529 5526 5522 5519 5517 5514 5511
5591 5593 5594 5595 5596 5596 5596 5596 5595 5593 5590 5586 5580 5575 5572 5569 5567 5565 5563 5560 5559 5555 5551 5547 5544 5541 5538 5535 5531 5528 5525 5522 5519 5516 5513 5510 5507 5505
5578 5580 5581 5583 5584 5584 5585 5585 5584 5583 5580 5577 5573 5569 5565 5562 5561 5559 5556 5554 5553 5550 5545 5541 5538 5534 5531 5529 5525 5522 5518 5515 5513 5510 5508 5505 5503 5500
5566 5566 5567 5567 5569 5571 5574 5574 5574 5573 5571 5568 5565 5562 5558 5555 5554 5552 5550 5547 5545 5542 5540 5538 5535 5532 5528 5523 5520 5516 5513 5510 5508 5506 5503 5501 5499 5496
5554 5555 5555 5555 5555 5556 5557 5558 5559 5561 5561 5559 5557 5553 5549 5547 5545 5544 5543 5542 5539 5535 5534 5533 5531 5529 5525 5522 5516 5512 5509 5506 5504 5502 5500 5498 5495 5493
5542 5544 5546 5544 5546 5547 5546 5545 5545 5545 5545 5548 5547 5544 5540 5538 5536 5535 5532 5532 5529 5528 5527 5527 5525 5523 5521 5518 5512 5508 5505 5503 5501 5499 5497 5495 5493 5491
5531 5532 5533 5533 5533 5535 5537 5536 5535 5534 5534 5535 5534 5532 5530 5527 5526 5525 5523 5522 5521 5520 5519 5520 5520 5518 5517 5514 5508 5505 5502 5500 5499 5497 5496 5494 5492 5490
5522 5521 5523 5523 5520 5522 5527 5527 5526 5524 5522 5521 5520 5519 5517 5516 5516 5519 5519 5519 5518 5517 5515 5515 5515 5515 5514 5512 5508 5504 5502 5500 5498 5497 5495 5493 5492 5490
5514 5513 5510 5511 5511 5513 5518 5519 5518 5517 5517 5515 5512 5511 5511 5510 5508 5509 5512 5513 5512 5511 5510 5510 5510 5510 5509 5510 5508 5506 5503 5501 5500 5498 5496 5494 5492 5491
5512 5510 5505 5502 5504 5506 5508 5510 5507 5508 5511 5511 5510 5510 5508 5507 5506 5505 5504 5505 5505 5506 5506 5505 5505 5505 5505 5506 5507 5507 5506 5505 5502 5500 5497 5495 5493 5491
5506 5505 5500 5497 5498 5499 5501 5499 5501 5502 5508 5508 5508 5507 5506 5504 5503 5501 5499 5499 5498 5499 5498 5498 5500 5500 5501 5503 5504 5506 5506 5505 5504 5503 5502 5497 5495 5493
5498 5494 5494 5494 5494 5497 5495 5496 5498 5503 5504 5504 5503 5502 5501 5499 5498 5497 5497 5496 5496 5497 5497 5495 5496 5498 5500 5501 5503 5504 5504 5505 5504 5503 5502 5501 5500 5498
5497 5493 5492 5493 5494 5493 5495 5497 5499 5498 5499 5499 5499 5498 5498 5497 5497 5497 5496 5497 5498 5499 5497 5496 5495 5496 5499 5501 5503 5504 5504 5504 5504 5503 5503 5502 5502 5501
5496 5499 5500 5499 5499 5498 5498 5497 5497 5497 5496 5496 5496 5496 5496 5496 5496 5496 5495 5496 5497 5497 5499 5498 5498 5498 5499 5500 5502 5504 5504 5504 5504 5504 5501 5503 5504 5503
5495 5499 5499 5499 5499 5499 5498 5497 5496 5495 5494 5494 5494 5495 5495 5495 5495 5495 5495 5495 5496 5497 5498 5499 5500 5501 5503 5505 5501 5503 5505 5504 5504 5504 5503 5503 5503 5503
5498 5500 5499 5498 5498 5498 5497 5496 5495 5493 5491 5493 5494 5494 5494 5494 5494 5494 5495 5495 5496 5497 5498 5499 5500 5500 5501 5502 5503 5500 5502 5503 5503 5504 5504 5503 5503 5503
5502 5502 5500 5499 5499 5498 5497 5496 5495 5494 5494 5494 5494 5494 5494 5494 5494 5494 5495 5494 5495 5496 5498 5500 5500 5500 5500 5500 5503 5504 5500 5502 5502 5502 5503 5503 5503 5501
5505 5504 5502 5501 5500 5499 5498 5497 5495 5495 5494 5494 5494 5493 5494 5494 5494 5495 5496 5493 5493 5497 5498 5499 5500 5496 5498 5500 5502 5504 5504 5500 5499 5498 5499 5500 5501 5501
5507 5506 5504 5503 5502 5501 5500 5500 5499 5498 5496 5496 5496 5495 5495 5495 5495 5495 5496 5497 5497 5499 5499 5501 5501 5501 5502 5502 5502 5503 5504 5503 5500 5497 5495 5494 5495 5495
5510 5509 5508 5507 5506 5505 5505 5504 5501 5501 5499 5498 5498 5497 5497 5497 5496 5497 5498 5499 5500 5500 5501 5502 5503 5503 5503 5503 5503 5504 5504 5503 5503 5502 5500 5496 5492 5490